Hourly Data Report for October 04, 2017

All times are specified in Local Standard Time (LST). Add 1 hour to adjust for Daylight Saving Time where and when it is observed.

MOOSE CREEK WELLS
ONTARIO

45°15'04.000" N
74°57'46.000" W
84.50 m
6105397
71635
TCK

Download Data

Hourly Data (October 2017)
Hourly Data Report for October 4, 2017
Temp Definition
°C
Dew Point Temp Definition
°C
Rel Hum Definition
%
Wind Dir Definition
10's deg

Wind Spd Definition
km/h
Visibility Definition
km
Stn Press Definition
kPa
Hmdx Definition


Wind Chill Definition


Weather Definition


TIME
00:00 13.5 9.0 74 18 7   101.59     LegendNANA
01:00 13.2 9.0 76 17 5   101.56     LegendNANA
02:00 15.5 9.6 68 19 10   101.46     LegendNANA
03:00 15.5 9.6 68 19 8   101.41     LegendNANA
04:00 16.3 9.9 66 19 14   101.35     LegendNANA
05:00 16.4 10.1 66 20 12   101.31     LegendNANA
06:00 15.8 10.1 69 19 12   101.23     LegendNANA
07:00 16.3 10.5 69 20 11   101.20     LegendNANA
08:00 18.2 11.4 64 21 10   101.16     LegendNANA
09:00 19.1 11.8 63 22 14   101.13     LegendNANA
10:00 20.7 12.9 61 21 12   101.04     LegendNANA
11:00 22.7 14.3 59 20 13   100.90 26   LegendNANA
12:00 23.8 15.1 58 19 15   100.76 28   LegendNANA
13:00 24.8 15.8 57 20 17   100.64 29   LegendNANA
14:00 23.6 16.4 64 21 13   100.53 28   LegendNANA
15:00 22.9 16.3 66 20 13   100.46 28   LegendNANA
16:00 22.5 16.4 69 21 14   100.35 27   LegendNANA
17:00 22.5 16.9 70 21 17   100.27 28   LegendNANA
18:00 20.7 17.9 84 21 16   100.25 27   LegendNANA
19:00 19.5 18.6 95 24 13   100.33     LegendNANA
20:00 19.0 17.5 92 25 14   100.32     LegendNANA
21:00 18.4 16.8 91 26 12   100.42     LegendNANA
22:00 16.8 14.6 87 26 9   100.48     LegendNANA
23:00 15.6 13.9 90 27 8   100.59     LegendNANA

Notes on Data Quality.

Legend

  • E = Estimated
  • M = Missing
  • NA = Not Available
  • ‡ = Partner data that is not subject to review by the National Climate Archives
Date modified: